Home   Weather   Halifax   Past weeks

Flag for Canada Past Weather in Halifax, Nova Scotia, Canada — Yesterday and Last 2 Weeks

41 °F

Sprinkles. Mostly cloudy.

Feels Like: 35 °F
Forecast: 37 / 47 °F
Wind: 9 mph from Northeast

Location: Halifax International Airport

Current Time: Oct 27, 2016 at 12:15:02 AM

Latest Report: Oct 26, 2016 at 11:00 PM

Visibility: 12 mi

Pressure: 30.22 "Hg

Humidity: 100%

Dew Point: 41 °F

Location of HalifaxLocation

Past Weather in Halifax — Graph


Halifax Temperature Yesterday

Maximum temperature yesterday: 50 °F (at 2:00 PM)
Minimum temperature yesterday: 36 °F (at 1:00 AM)
Average temperature yesterday: 41 °F

High & Low Weather Summary for the Past Weeks

High68 °F (Oct 19, 4:00 PM)100% (Oct 12, 10:00 PM)30.45 "Hg (Oct 12, 10:00 PM)
Low36 °F (Oct 16, 4:00 AM)48% (Oct 20, 1:00 PM)29.12 "Hg (Oct 22, 6:50 PM)
Average51 °F83%29.96 "Hg
* Reported Oct 11 11:00 PM — Oct 26 11:00 PM, Halifax, Weather by CustomWeather, © 2016

Note: Actual official high and low records may vary slightly from our data, if they occured in-between our weather recording intervals... More about our weather records


Halifax Weather History for the Previous 24 Hours

Scroll right to see more
Time TempWeatherWind HumidityBarometerVisibility
11:00 PM
Wed, Oct 26
41 °FSprinkles. Mostly cloudy.9 mph100%30.22 "Hg12 mi
10:00 PM41 °FSprinkles. Mostly cloudy.8 mph100%30.21 "Hg15 mi
9:48 PM41 °FMostly cloudy.8 mph100%30.21 "Hg15 mi
9:00 PM41 °FPartly cloudy.8 mph100%30.19 "Hg15 mi
8:00 PM43 °FSprinkles. Partly cloudy.8 mph93%30.17 "Hg15 mi
7:00 PM43 °FSprinkles. Mostly cloudy.8 mph100%30.16 "Hg15 mi
6:00 PM43 °FSprinkles. Partly sunny.6 mph100%30.14 "Hg15 mi
5:00 PM45 °FSprinkles. Partly sunny.8 mph87%30.11 "Hg15 mi
4:00 PM48 °FScattered showers. Partly sunny.16 mph76%30.09 "Hg12 mi
3:00 PM50 °FBroken clouds.10 mph67%30.08 "Hg15 mi
2:00 PM50 °FBroken clouds.8 mph62%30.07 "Hg15 mi
1:00 PM48 °FBroken clouds.12 mph66%30.07 "Hg15 mi
12:00 PM46 °FPartly sunny.8 mph71%30.08 "Hg15 mi
11:00 AM43 °FScattered clouds.7 mph81%30.08 "Hg15 mi
10:00 AM41 °FScattered clouds.6 mph93%30.07 "Hg15 mi
9:00 AM39 °FPartly sunny.No wind93%30.06 "Hg15 mi
8:00 AM37 °FBroken clouds.2 mph93%30.04 "Hg15 mi
7:00 AM36 °FPartly cloudy.No wind93%30.02 "Hg15 mi
6:00 AM36 °FPassing clouds.3 mph93%30.01 "Hg15 mi
5:00 AM36 °FClear.7 mph93%29.99 "Hg15 mi
4:00 AM36 °FPassing clouds.7 mph93%29.99 "Hg15 mi
3:00 AM36 °FPassing clouds.6 mph93%29.98 "Hg15 mi
2:00 AM37 °FPassing clouds.8 mph93%29.97 "Hg15 mi
1:00 AM36 °FPassing clouds.6 mph93%29.97 "Hg15 mi
12:00 AM37 °FPassing clouds.8 mph87%29.96 "Hg15 mi
Weather by CustomWeather, © 2016

See weather overviewHow to use our weather pages